• In Belgium
  • List of Countries
  • For 7 days
  • Water Temperature
  • Satellite Maps
  • Weather Map
  • Weather Widgets
  • user-avatar
    Login

    Hourly Weather Banning

    Today, 25 November, Saturday

    Time Temperature Precipitation Wind Pressure Humidity
    00:00 +16°C° 0 mm 0 mps 699 mmHg 44%
    01:00 +16°C° 0 mm 0 mps 699 mmHg 46%
    02:00 +16°C° 0 mm 0 mps 699 mmHg 46%
    03:00 +16°C° 0 mm 0 mps 699 mmHg 46%
    04:00 +16°C° 0 mm 1 mps 699 mmHg 46%
    05:00 +18°C° 0 mm 1 mps 699 mmHg 43%
    06:00 +18°C° 0 mm 1 mps 699 mmHg 39%
    07:00 +18°C° 0 mm 1 mps 699 mmHg 35%
    08:00 +21°C° 0 mm 1 mps 701 mmHg 30%
    09:00 +24°C° 0 mm 1 mps 702 mmHg 25%
    10:00 +28°C° 0 mm 1 mps 703 mmHg 20%
    11:00 +28°C° 0 mm 1 mps 702 mmHg 19%
    12:00 +29°C° 0 mm 2 mps 702 mmHg 18%
    13:00 +30°C° 0 mm 2 mps 702 mmHg 17%
    14:00 +28°C° 0 mm 2 mps 702 mmHg 20%
    15:00 +27°C° 0 mm 2 mps 701 mmHg 22%
    16:00 +26°C° 0 mm 2 mps 701 mmHg 25%
    17:00 +24°C° 0 mm 1 mps 701 mmHg 31%
    18:00 +21°C° 0 mm 1 mps 701 mmHg 36%
    19:00 +19°C° 0 mm 1 mps 700 mmHg 41%
    20:00 +18°C° 0 mm 1 mps 701 mmHg 42%
    21:00 +18°C° 0 mm 1 mps 701 mmHg 43%
    22:00 +18°C° 0 mm 1 mps 701 mmHg 43%
    23:00 +16°C° 0 mm 1 mps 701 mmHg 42%

    Tomorrow, 26 November, Sunday

    Time Temperature Precipitation Wind Pressure Humidity
    00:00 +16°C° 0 mm 1 mps 701 mmHg 41%
    01:00 +16°C° 0 mm 1 mps 701 mmHg 40%
    02:00 +16°C° 0 mm 1 mps 701 mmHg 39%
    03:00 +15°C° 0 mm 1 mps 700 mmHg 38%
    04:00 +15°C° 0 mm 1 mps 700 mmHg 36%
    05:00 +15°C° 0 mm 1 mps 700 mmHg 31%
    06:00 +15°C° 0 mm 1 mps 700 mmHg 27%
    07:00 +15°C° 0 mm 1 mps 701 mmHg 22%
    08:00 +20°C° 0 mm 1 mps 701 mmHg 18%
    09:00 +24°C° 0 mm 1 mps 702 mmHg 13%
    10:00 +27°C° 0 mm 2 mps 703 mmHg 9%
    11:00 +28°C° 0 mm 2 mps 702 mmHg 10%
    12:00 +28°C° 0 mm 3 mps 702 mmHg 10%
    13:00 +29°C° 0 mm 3 mps 701 mmHg 10%
    14:00 +27°C° 0 mm 3 mps 701 mmHg 13%
    15:00 +26°C° 0 mm 2 mps 700 mmHg 16%
    16:00 +24°C° 0 mm 2 mps 699 mmHg 19%
    17:00 +21°C° 0 mm 2 mps 699 mmHg 23%
    18:00 +19°C° 0 mm 2 mps 699 mmHg 28%
    19:00 +17°C° 0 mm 2 mps 699 mmHg 32%
    20:00 +17°C° 0 mm 2 mps 699 mmHg 32%
    21:00 +16°C° 0 mm 2 mps 699 mmHg 32%
    22:00 +16°C° 0 mm 2 mps 699 mmHg 31%
    23:00 +15°C° 0 mm 2 mps 698 mmHg 33%

    Day after tomorrow, 27 November, Monday

    Time Temperature Precipitation Wind Pressure Humidity
    00:00 +15°C° 0 mm 2 mps 698 mmHg 35%
    01:00 +14°C° 0 mm 2 mps 698 mmHg 37%
    02:00 +14°C° 0 mm 2 mps 697 mmHg 39%
    03:00 +13°C° 0 mm 3 mps 697 mmHg 41%
    04:00 +13°C° 0 mm 3 mps 697 mmHg 43%
    05:00 +13°C° 0 mm 3 mps 697 mmHg 48%
    06:00 +13°C° 0 mm 3 mps 697 mmHg 53%
    07:00 +13°C° 0 mm 3 mps 698 mmHg 59%
    08:00 +14°C° 0 mm 4 mps 698 mmHg 59%
    09:00 +15°C° 0 mm 5 mps 698 mmHg 58%
    10:00 +15°C° 0 mm 5 mps 699 mmHg 58%
    11:00 +16°C° 0 mm 5 mps 699 mmHg 52%
    12:00 +16°C° 0 mm 5 mps 698 mmHg 45%
    13:00 +17°C° 0 mm 5 mps 698 mmHg 39%
    14:00 +18°C° 0 mm 4 mps 698 mmHg 38%
    15:00 +17°C° 0 mm 3 mps 698 mmHg 37%
    16:00 +17°C° 0 mm 3 mps 698 mmHg 37%
    17:00 +15°C° 0 mm 2 mps 699 mmHg 39%
    18:00 +14°C° 0 mm 2 mps 699 mmHg 41%
    19:00 +12°C° 0 mm 2 mps 699 mmHg 44%
    20:00 +13°C° 0 mm 2 mps 700 mmHg 41%
    21:00 +13°C° 0 mm 2 mps 700 mmHg 39%
    22:00 +12°C° 0 mm 3 mps 700 mmHg 36%
    23:00 +12°C° 0 mm 3 mps 700 mmHg 35%

    28 November, Tuesday

    Time Temperature Precipitation Wind Pressure Humidity
    00:00 +11°C° 0 mm 3 mps 700 mmHg 34%
    01:00 +11°C° 0 mm 3 mps 700 mmHg 33%
    02:00 +11°C° 0 mm 3 mps 700 mmHg 33%
    03:00 +11°C° 0 mm 3 mps 700 mmHg 32%
    04:00 +11°C° 0 mm 3 mps 700 mmHg 32%
    05:00 +11°C° 0 mm 3 mps 701 mmHg 32%
    06:00 +11°C° 0 mm 3 mps 701 mmHg 32%
    07:00 +11°C° 0 mm 3 mps 701 mmHg 32%
    08:00 +14°C° 0 mm 3 mps 702 mmHg 28%
    09:00 +18°C° 0 mm 3 mps 702 mmHg 23%
    10:00 +20°C° 0 mm 3 mps 703 mmHg 18%
    11:00 +21°C° 0 mm 2 mps 702 mmHg 16%
    12:00 +23°C° 0 mm 2 mps 702 mmHg 15%
    13:00 +24°C° 0 mm 2 mps 701 mmHg 13%
    14:00 +23°C° 0 mm 2 mps 701 mmHg 16%
    15:00 +21°C° 0 mm 1 mps 701 mmHg 19%
    16:00 +20°C° 0 mm 1 mps 700 mmHg 22%
    17:00 +18°C° 0 mm 1 mps 700 mmHg 24%
    18:00 +15°C° 0 mm 1 mps 700 mmHg 27%
    19:00 +13°C° 0 mm 1 mps 699 mmHg 30%
    20:00 +13°C° 0 mm 1 mps 699 mmHg 31%
    21:00 +12°C° 0 mm 1 mps 699 mmHg 32%
    22:00 +12°C° 0 mm 1 mps 699 mmHg 33%
    23:00 +12°C° 0 mm 1 mps 698 mmHg 33%

    29 November, Wednesday

    Time Temperature Precipitation Wind Pressure Humidity
    00:00 +11°C° 0 mm 1 mps 698 mmHg 33%
    01:00 +11°C° 0 mm 1 mps 698 mmHg 33%
    02:00 +11°C° 0 mm 1 mps 697 mmHg 35%
    03:00 +10°C° 0 mm 1 mps 697 mmHg 37%
    04:00 +10°C° 0 mm 1 mps 697 mmHg 38%
    05:00 +10°C° 0 mm 1 mps 697 mmHg 34%
    06:00 +11°C° 0 mm 1 mps 698 mmHg 29%
    07:00 +11°C° 0 mm 1 mps 698 mmHg 24%
    08:00 +14°C° 0 mm 1 mps 699 mmHg 20%
    09:00 +18°C° 0 mm 1 mps 699 mmHg 16%
    10:00 +21°C° 0 mm 1 mps 700 mmHg 11%
    11:00 +21°C° 0 mm 1 mps 700 mmHg 11%
    12:00 +21°C° 0 mm 2 mps 699 mmHg 11%
    13:00 +21°C° 0 mm 2 mps 699 mmHg 10%
    14:00 +20°C° 0 mm 2 mps 698 mmHg 14%
    15:00 +19°C° 0 mm 2 mps 698 mmHg 17%
    16:00 +19°C° 0 mm 1 mps 698 mmHg 20%
    17:00 +16°C° 0 mm 2 mps 698 mmHg 22%
    18:00 +15°C° 0 mm 2 mps 699 mmHg 24%
    19:00 +13°C° 0 mm 3 mps 699 mmHg 26%
    20:00 +12°C° 0 mm 3 mps 700 mmHg 26%
    21:00 +12°C° 0 mm 4 mps 700 mmHg 27%
    22:00 +10°C° 0 mm 5 mps 701 mmHg 28%
    23:00 +10°C° 0 mm 5 mps 701 mmHg 28%

    30 November, Thursday

    Time Temperature Precipitation Wind Pressure Humidity
    00:00 +9°C° 0 mm 5 mps 701 mmHg 28%
    01:00 +9°C° 0 mm 5 mps 701 mmHg 27%
    02:00 +8°C° 0 mm 5 mps 701 mmHg 29%
    03:00 +8°C° 0 mm 5 mps 701 mmHg 30%
    04:00 +7°C° 0 mm 5 mps 702 mmHg 31%
    05:00 +7°C° 0 mm 5 mps 702 mmHg 30%
    06:00 +7°C° 0 mm 5 mps 703 mmHg 30%
    07:00 +7°C° 0 mm 5 mps 703 mmHg 29%
    08:00 +9°C° 0 mm 5 mps 704 mmHg 25%
    09:00 +11°C° 0 mm 6 mps 704 mmHg 20%
    10:00 +14°C° 0 mm 6 mps 705 mmHg 15%
    11:00 +15°C° 0 mm 6 mps 704 mmHg 14%
    12:00 +16°C° 0 mm 6 mps 704 mmHg 12%
    13:00 +16°C° 0 mm 6 mps 704 mmHg 11%
    14:00 +16°C° 0 mm 5 mps 703 mmHg 12%
    15:00 +15°C° 0 mm 5 mps 703 mmHg 13%
    16:00 +14°C° 0 mm 4 mps 703 mmHg 14%
    17:00 +12°C° 0 mm 4 mps 703 mmHg 15%
    18:00 +11°C° 0 mm 4 mps 703 mmHg 16%
    19:00 +8°C° 0 mm 4 mps 703 mmHg 18%
    20:00 +8°C° 0 mm 4 mps 703 mmHg 17%
    21:00 +8°C° 0 mm 4 mps 703 mmHg 17%
    22:00 +7°C° 0 mm 4 mps 703 mmHg 16%
    23:00 +7°C° 0 mm 4 mps 703 mmHg 16%
    Show more